Location: Staunton
(38.1490°N, 79.0720°W)
Time: 14:24:39
(UTC-04:00)

ISS - Pass Details

Date: 24 May 2017
Orbit: 402 x 408 km, 51.6° (Epoch: 29 May)

Event Time Altitude Azimuth Distance (km) Brightness Sun altitude
Rises 05:21:47 0° 304° (NW) 2,322 -0.2 -7.1°
Reaches altitude 10° 05:23:55 10° 299° (WNW) 1,458 -1.3 -6.7°
Maximum altitude 05:27:04 47° 224° (SW) 540 -3.6 -6.2°
Drops below altitude 10° 05:30:12 10° 149° (SSE) 1,446 -1.0 -5.7°
Sets 05:32:18 0° 143° (SE) 2,300 0.1 -5.4°
